Home > Weather > Adama > Past weeks

Flag for Ethiopia Weather for the Past 2 Weeks in Adama, Ethiopia

Now
68 °F

Scattered clouds.


Feels Like: 68 °F
Forecast: 60 / 79 °F
Wind: 9 mph from Northeast

Location: Addis Ababa Airport

Current Time: May 6, 2016 at 12:59:57 PM

Latest Report: May 6, 2016 at 12:00 PM


Visibility: N/A

Pressure: 30.39 "Hg (25.16 "Hg at 1621m altitude)

Humidity: 60%

Dew Point: 54 °F

Location of AdamaLocation

Historic Weather in Adama — Graph

°F

Adama Temperature Yesterday

Maximum temperature yesterday: 79 °F (at 3:00 PM)
Minimum temperature yesterday: 59 °F (at 5:00 AM)
Average temperature yesterday: 68 °F

High & Low Weather Summary for the Past Weeks

 TemperatureHumidityPressure
High79 °F (May 5, 3:00 PM)94% (Apr 30, 4:00 AM)30.45 "Hg (Apr 30, 4:00 AM)
Low57 °F (Apr 27, 7:00 AM)37% (May 5, 4:00 PM)30.21 "Hg (Apr 24, 5:00 PM)
Average65 °F69%30.31 "Hg
* Reported Apr 21 11:00 AM — May 6 11:00 AM, Adama, Weather by CustomWeather, © 2016

Note: Actual official high and low records may vary slightly from our data, if they occured in-between our weather recording intervals... More about our weather records

Advertising

Adama Weather History for the Previous 24 Hours

Scroll right to see more
 ConditionsComfort  
Time TempWeatherWind HumidityBarometerVisibility
11:00 AM
Fri, May 6
66 °FPartly sunny.10 mph73%30.42 "HgN/A
10:00 AM61 °FOvercast.7 mph83%30.45 "HgN/A
9:00 AM57 °FHeavy rain. Low clouds.3 mph94%30.45 "Hg2 mi
8:00 AM59 °FDrizzle. Mostly cloudy.10 mph88%30.42 "Hg4 mi
7:00 AM59 °FFog.5 mph82%30.36 "Hg5 mi
6:00 AM59 °FPassing clouds.2 mph82%30.36 "HgN/A
5:00 AM61 °FPassing clouds.No wind77%30.36 "HgN/A
3:30 AM61 °FPassing clouds.No wind88%30.33 "HgN/A
2:00 AM61 °FPartly cloudy.2 mph88%30.33 "HgN/A
1:00 AM61 °FPartly cloudy.2 mph88%30.36 "HgN/A
12:00 AM63 °FPassing clouds.5 mph83%30.36 "HgN/A
10:00 PM
Thu, May 5
63 °FPassing clouds.5 mph73%30.36 "HgN/A
8:00 PM66 °FPassing clouds.5 mph60%30.33 "HgN/A
6:00 PM70 °FPartly sunny.14 mph53%30.27 "HgN/A
5:00 PM73 °FPartly sunny.14 mph44%30.24 "HgN/A
4:00 PM79 °FPartly sunny.14 mph37%30.24 "HgN/A
3:00 PM79 °FPartly sunny.13 mph42%30.24 "HgN/A
2:00 PM75 °FPartly sunny.10 mph50%30.27 "HgN/A
Weather by CustomWeather, © 2016

See weather overviewHow to use our weather pages